Location: Unspecified
(50.7693°N, 0.0000°E)
Time: 03:47:23
(UTC+00:00)

Transit 4A - Pass Details

Date: 26 June 2019
Orbit: 862 x 982 km, 66.8° (Epoch: 20 July)

Event Time Altitude Azimuth Distance (km) Brightness Sun altitude
Rises 09:39:00 0° 260° (W) 3,658 10.7 51.0°
Reaches altitude 10° 09:41:54 10° 271° (W) 2,724 10.1 51.4°
Maximum altitude 09:47:25 30° 331° (NNW) 1,702 9.3 52.1°
Drops below altitude 10° 09:52:59 10° 31° (NNE) 2,746 10.5 52.8°
Sets 09:55:57 0° 42° (NE) 3,691 11.1 53.2°
